Location: Unspecified
(0.0000°N, 0.0000°E)
Time: 08:53:07
(UTC+00:00)

deb DAPP - Pass Details

Date: 22 December 2025
Orbit: 606 x 945 km, 99.0° (Epoch: 14 January)

Event Time Altitude Azimuth Distance (km) Brightness Sun altitude
Rises 19:34:34 0° 180° (S) 3,302 ? -21.8°
Reaches altitude 10° 19:36:54 10° 186° (S) 2,420 ? -22.4°
Maximum altitude 19:42:02 45° 258° (WSW) 1,170 ? -23.5°
Drops below altitude 10° 19:47:32 10° 329° (NNW) 2,591 ? -24.8°
Sets 19:50:08 0° 335° (NNW) 3,559 ? -25.3°
